Epoch 2010 Mar. 25.0 TT = JDT 2455280.5 T 2010 Apr. 2.54029 TT MPC q 1.2045380 (2000.0) P Q z +0.0021371 Peri. 168.63168 -0.25611585 -0.24737105 +/-0.0001375 Node 287.44869 +0.79220541 +0.50022675 e 0.9974258 Incl. 78.38725 +0.55390907 -0.82980766
m1 = 11.5 + 5 logΔ + 15.0 log r